User: anonymous   Login
Location: Unspecified
(0.0000°N, 0.0000°E)
Time: 20:59:20
(UTC+00:00)
Language:

Nova 2 - Orbit

View from above orbital plane
View from above orbital plane
View from above satellite
View from above satellite

Ground track
Ground track

The orbit data is extracted from the following two-line orbital elements,

1 19223U 88052A   18267.93184088 +.00000044 +00000-0 +83628-4 0  9994
2 19223 089.9579 085.2912 0032474 077.4469 078.3123 13.22673999461028
Epoch (UTC): 24 September 2018 22:21:51
Eccentricity: 0.0032474
inclination: 89.9579°
perigee height: 1150 km
apogee height: 1199 km
right ascension of ascending node: 85.2912°
argument of perigee: 77.4469°
revolutions per day: 13.22673999
mean anomaly at epoch: 78.3123°
orbit number at epoch: 46102

The dashed part of the orbit path shows where the satellite is in the earth's shadow,  

DLR